Regional Weather Roundup
Issued by NWS

Home | Current Version | Previous Version | Graphics & Text | Print | Product List | Glossary On
Versions: 1 2 3 4 5 6 7 8 9 10 11 12 13 14 15 16 17 18 19 20 21 22 23 24 25 26 27 28 29 30 31 32 33 34 35 36 37 38 39 40 41 42 43 44 45 46 47 48 49 50
383
ASUS44 KJAN 302110
RWRMS

MISSISSIPPI HOURLY WEATHER ROUNDUP
NATIONAL WEATHER SERVICE JACKSON MS
300 PM CST FRI JAN 30 2015

NOTE: "FAIR: INDICATES FEW OR NO CLOUDS BELOW 12,000 FEET WITH NO
SIGNIFICANT WEATHER AND/OR OBSTRUCTIONS TO VISIBILITY.

MSZ001>002-007>008-010>013-018>021-025>028-034>036-302200-
NORTHWEST MISSISSIPPI

CITY           SKY/WX    TMP DP  RH WIND       PRES   REMARKS
CLARKSDALE     FAIR      48  28  46 N10G18    30.44F
CLEVELAND      FAIR      49  33  52 N14       30.42F
GREENWOOD      SUNNY     54  29  38 NW6       30.40S
GREENVILLE     SUNNY     52  30  43 NE10      30.41F
GRENADA        FAIR      54  27  35 NE5       30.41S
OLIVE BRANCH   MOSUNNY   46  25  42 N5        30.43F
OXFORD         FAIR      50  21  32 NE8       30.42F
TUNICA         CLEAR     50  27  40 N6        30.44F
$$

MSZ003>006-009-014>017-022>024-029>033-037>039-302200-
NORTHEAST MISSISSIPPI

CITY           SKY/WX    TMP DP  RH WIND       PRES   REMARKS
COLUMBUS AFB   SUNNY     52  24  33 NW9       30.39S
CORINTH        FAIR      50  23  34 NE8       30.40S
GOLDN TRIANGLE SUNNY     54  30  40 N7        30.38S
STARKVILLE     FAIR      52  30  43 N6        30.38S
TUPELO         SUNNY     50  24  36 NE10G17   30.40F
$$

MSZ040-058-302200-
CENTRAL MISSISSIPPI

CITY           SKY/WX    TMP DP  RH WIND       PRES   REMARKS
JACKSON INTL   PTSUNNY   57  28  33 N7        30.36F
JACKSON HAWKNS MOSUNNY   57  25  29 NE8       30.36F
MERIDIAN KEY   MOSUNNY   56  26  31 NE10      30.35S
MERIDIAN NAS   PTSUNNY   56  26  31 NE8       30.36F
RAYMOND        FAIR      57  52  82 N6        30.36F
VICKSBURG      MOSUNNY   56  32  40 N8        30.38F
$$

MSZ059>079-302200-
SOUTH MISSISSIPPI

CITY           SKY/WX    TMP DP  RH WIND       PRES   REMARKS
BROOKHAVEN     FAIR      57  30  35 N7        30.35F
HATTIESBURG    PTSUNNY   59  28  30 N8        30.33F
MCCOMB         PTSUNNY   59  28  30 N9        30.33F
NATCHEZ        PTSUNNY   55  30  38 N7        30.35F
PINE BELT      PTSUNNY   59  28  31 N12       30.34F
$$

MSZ080>082-302200-
COASTAL MISSISSIPPI

CITY           SKY/WX    TMP DP  RH WIND       PRES   REMARKS
BILOXI         PTSUNNY   62  30  29 N8        30.30S
PASCAGOULA     PTSUNNY   63  29  27 NE12G20   30.30S
GULFPORT       PTSUNNY   62  29  28 N10       30.30F
$$



USA.gov is the U.S. government's official web portal to all federal, state and local government web resources and services.